Weather in Jining

China     35°22′46″N   116°34′24″E
temp.,
°C
wind,
m/s
gust,
m/s
humid.,
%
clouds,
%
prec.,
mm/h
press.,
hPa
HPBL,
m
28 june, tue
tue2823:00+24sw25935 0.0 997163
02:00+23ssw25963 0.0 996220
05:00+23s229711 0.0 99671
08:00+27s34774 0.0 997551
11:00+32ssw44550 0.0 9961123
14:00+37sw35330 0.0 9942415
17:00+37ssw792962 0.0 9932351
20:00+31s411434 0.0 993194
29 june, wed
wed2923:00+30s6145286 0.0 994463
02:00+27wsw59600 0.0 995261
05:00+24wnw58793 0.0 997276
08:00+28nnw45665 0.0 999559
11:00+32nnw44465 0.0 10001163
14:00+35wnw44350 0.0 9992138
17:00+35nw45323 0.0 9982340
20:00+29n1455100 0.0 1000155
30 june, thu
thu3023:00+27e02655 0.0 100274
02:00+23s24855 1.8 1003148
05:00+24nnw00823 0.0 100311
08:00+27ne33662 0.0 1004582
11:00+32ne22495 0.0 10041366
14:00+36sse113953 0.0 10032229
17:00+34s224472 0.3 1002448
20:00+28ne346468 2.5 100391
1 july, fri
fri123:00+24ene51080100 2.7 1006281
02:00+25ese1382100 4.8 1005131
05:00+25sse128431 0.0 100630
08:00+29ese23653 0.1 1007567
11:00+33ese225011 0.0 10071593
14:00+34ese334731 0.3 10051593
17:00+35sse444290 0.1 10041607
20:00+29sse6106630 0.2 1004440
2 july, sat
sat223:00+26ese1180100 2.1 100728
02:00+26se3980100 2.1 1006301
05:00+25se4985100 0.1 1006337
08:00+28se5671100 0.1 1007584
11:00+32se5553100 0.0 10061314
14:00+34se5545100 0.0 10052159
17:00+33se4643100 0.0 1004878
20:00+30ese3854100 0.0 1003182